Hurlburt Field, FL (32544)

3:09 AM CDT on July 27, 2016 (GMT -0500)
Cobia Bay | | Change Station
Active Advisory: Coastal Hazard Statement

Elev 13 ft 30.41 °N, 86.74 °W | Updated 3 seconds ago

Partly Cloudy
Partly Cloudy
82.2 °F
Feels Like 91 °F
N
7.0
Wind Variable Wind from SW
Gusts 9.0 mph

Today
High -- | Low -- °F
--% Chance of Precip.
Yesterday
High -- | Low -- °F
Precip. -- in
Pressure 30.00 in
Visibility 10.0 miles
Clouds Few 2000 ft
Heat Index 91 °F
Dew Point 77 °F
Humidity 85%
Rainfall 0.00 in
Snow Depth Not available.
6:02 AM 7:43 PM
Last Quarter, 46% visible
METAR KHRT 270758Z 21006KT 10SM FEW020 28/23 A2999 RMK AO2A SLP159
Pressure 30.00 in
Visibility 10.0 miles
Clouds Few 2000 ft
Heat Index 91 °F
Dew Point 77 °F
Humidity 85%
Rainfall 0.00 in
Snow Depth Not available.
6:02 AM 7:43 PM
Last Quarter, 46% visible
METAR KHRT 270758Z 21006KT 10SM FEW020 28/23 A2999 RMK AO2A SLP159

10-Day Weather Forecast

Almanac

Astronomy

Jul. 27, 2016 Rise Set
Actual Time
Civil Twilight
Nautical Twilight
Astronomical Twilight
Moon
Length of Visible Light
Length of Day
Tomorrow will be .
, % of the Moon is Illuminated

Today's Extremes

State Highs State Lows

Community

WunderPhotos

Upload Photos

1,927,818 photos uploaded!

WunderBlog® & News

Nearby

Air Quality

  Air Quality AQ Index Pollutant
Not available.

Snow Depth

Station Depth Elevation

Earthquake Activity

City Distance Mag. Time & Date
Minimum magnitude displayed is 2.5.

Coastal Water Temperatures

Place Temperature

Stations

Nearby Weather Stations

Station Location Temp. Windchill Dew Point Humidity Wind Precip. Elev Updated Type
                   

Watches & Warnings

Coastal Hazard Statement
Issued: 5:31 PM CDT Jul. 26, 2016 – National Weather Service

... High rip current risk in effect through early Wednesday
morning...

The National Weather Service in Mobile has issued a high rip
current risk... which is in effect through Wednesday morning.

* Timing... through early Wednesday morning.

* Impacts... frequent life-threatening rip currents are expected. The
surf is dangerous for all levels of swimmers.

Precautionary/preparedness actions...

There is a high risk of rip currents.

Rip currents are life-threatening to anyone entering the surf.
If you become caught in a rip current... Yell for help. Remain
calm... do not exhaust yourself and stay afloat while waiting for
help. If you have to swim out of a rip current... swim parallel
to shore and back toward the beach when possible. Do not attempt
to swim directly against a rip current as you will tire quickly.